Location: Forcarei
(42.5879°N, 8.3520°W)
Time: 19:24:54
(UTC+02:00)

ISS - Visible Passes

Search period start: 23 October 2017 00:00
Search period end: 01 November 2017 23:00
Orbit: 400 x 408 km, 51.6° (Epoch: 24 October)

Date Brightness Start Highest point End Pass type
(mag) Time Alt. Az. Time Alt. Az. Time Alt. Az.
29 Oct -0.9 06:44:16 10° S 06:46:17 15° SE 06:48:17 10° E visible
30 Oct -3.5 07:26:46 10° SW 07:29:59 68° SE 07:33:14 10° ENE visible
31 Oct -2.3 06:35:18 15° SSW 06:37:38 35° SE 06:40:39 10° ENE visible
01 Nov -1.2 05:45:46 18° ESE 05:45:46 18° ESE 05:47:44 10° E visible
01 Nov -3.7 07:18:28 11° WSW 07:21:34 54° NNW 07:24:47 10° NE visible
